Location: Santa Clara
(37.3540°N, 121.9540°W)
Time: 02:39:58
(UTC-07:00)

Hubble Space Telescope - Pass Details

Date: 29 May 2024
Orbit: 511 x 514 km, 28.5° (Epoch: 13 June)

Event Time Altitude Azimuth Distance (km) Brightness Sun altitude
Rises 21:18:40 0° 245° (WSW) 2,611 4.7 -10.3°
Reaches altitude 10° 21:21:14 10° 231° (SW) 1,724 3.5 -10.7°
Maximum altitude 21:24:22 22° 178° (S) 1,135 2.1 -11.2°
Enters shadow 21:26:09 17° 142° (SE) 1,351 2.2 -11.5°
